Weather in Shera

Russia / Vologda Oblast     59°30′44″N   39°51′56″E
temp.,
°C
wind,
m/s
gust,
m/s
humid.,
%
clouds,
%
prec.,
mm/h
press.,
hPa
HPBL,
m
12 april, mon
mon1200:00+1ne008871 0.0 103410
03:00+1se229099 0.0 103522
06:00+2ese3898100 0.1 1035166
09:00+4se41110099 0.1 1035291
12:00+8sse489993 0.0 1034334
15:00+12s488118 0.0 1034604
18:00+10sse498572 0.0 1033272
21:00+7se41493100 0.0 1032414
13 april, tue
tue1300:00+7sse51390100 0.0 1031529
03:00+6sse41194100 0.0 1029404
06:00+6sse41098100 0.0 1028412
09:00+8sse51094100 0.0 1026423
12:00+13s51073100 0.0 1025647
15:00+16s61164100 0.0 10231034
18:00+14s4870100 0.0 1022203
21:00+10s398562 0.0 1023161
14 april, wed
wed1400:00+9s31286100 0.0 1022216
03:00+8ssw38855 0.0 1022141
06:00+7s398496 0.0 1021170
09:00+13s510655 0.0 1020371
12:00+17s610538 0.0 1019769
15:00+18s6104793 0.0 10181359
18:00+15s511534 0.0 1017394
21:00+11ssw4117081 0.0 1018216
15 april, thu
thu1500:00+10wsw3776100 0.0 1018183
03:00+9nnw3697100 0.0 1019308
06:00+6n379297 0.0 1020326
09:00+7n4587100 0.0 1022433
12:00+7nne3685100 0.1 1023485
15:00+7nne3581100 0.8 1023632
18:00+7nne4780100 0.1 1024626
21:00+5nne3879100 0.1 1024404
16 april, fri
fri1600:00+4nne498295 0.0 1025274
03:00+1nne39875 0.0 1027240
06:00+1nne39867 0.0 1028236
09:00+5ne575546 0.0 1029756
12:00+8ne564124 0.0 10291321
15:00+10ne56375 0.0 10301579
18:00+9ne47473 0.0 1030704
21:00+4nne38680 0.0 1032156